TimeEDT,TemperatureF,Dew PointF,Humidity,Sea Level PressureIn,VisibilityMPH,Wind Direction,Wind SpeedMPH,Gust SpeedMPH,PrecipitationIn,Events,Conditions,WindDirDegrees,DateUTC
12:52 AM,48.0,37.0,66,29.57,10.0,SSE,4.6,-,N/A,,Overcast,150,2012-11-01 04:52:00
1:52 AM,48.0,37.9,68,29.56,10.0,SSE,3.5,-,N/A,,Overcast,150,2012-11-01 05:52:00
2:52 AM,48.0,37.9,68,29.55,10.0,South,3.5,-,N/A,,Overcast,180,2012-11-01 06:52:00
3:52 AM,46.9,37.9,71,29.53,10.0,Calm,Calm,-,N/A,,Overcast,0,2012-11-01 07:52:00
4:52 AM,45.0,39.0,80,29.54,10.0,Calm,Calm,-,N/A,,Overcast,0,2012-11-01 08:52:00
5:52 AM,43.0,36.0,76,29.55,10.0,SSW,4.6,-,N/A,,Partly Cloudy,200,2012-11-01 09:52:00
6:52 AM,44.1,36.0,73,29.55,10.0,SSE,4.6,-,N/A,,Partly Cloudy,160,2012-11-01 10:52:00
7:52 AM,44.1,35.1,71,29.56,10.0,SE,3.5,-,N/A,,Partly Cloudy,130,2012-11-01 11:52:00
8:52 AM,46.0,36.0,68,29.57,10.0,South,4.6,-,N/A,,Clear,170,2012-11-01 12:52:00
9:44 AM,48.2,35.6,62,29.56,10.0,WSW,9.2,-,N/A,,Mostly Cloudy,240,2012-11-01 13:44:00
9:52 AM,48.9,35.1,59,29.57,10.0,SW,9.2,-,N/A,,Mostly Cloudy,220,2012-11-01 13:52:00
10:52 AM,48.0,36.0,63,29.57,10.0,WSW,8.1,-,N/A,,Mostly Cloudy,240,2012-11-01 14:52:00
11:07 AM,48.2,35.6,62,29.56,10.0,Variable,5.8,-,N/A,,Scattered Clouds,0,2012-11-01 15:07:00
11:52 AM,50.0,36.0,59,29.55,10.0,Variable,4.6,-,N/A,,Overcast,0,2012-11-01 15:52:00
12:52 PM,53.1,37.0,55,29.53,10.0,Variable,4.6,-,N/A,,Overcast,0,2012-11-01 16:52:00
1:52 PM,54.0,37.9,55,29.52,10.0,Calm,Calm,-,N/A,,Mostly Cloudy,0,2012-11-01 17:52:00
2:52 PM,54.0,37.9,55,29.52,10.0,West,6.9,-,N/A,,Partly Cloudy,270,2012-11-01 18:52:00
3:52 PM,53.1,37.0,55,29.52,10.0,West,6.9,-,N/A,,Mostly Cloudy,270,2012-11-01 19:52:00
4:52 PM,52.0,37.9,59,29.52,10.0,West,3.5,-,N/A,,Overcast,260,2012-11-01 20:52:00
5:52 PM,52.0,37.9,59,29.53,10.0,SW,3.5,-,N/A,,Overcast,230,2012-11-01 21:52:00
6:52 PM,51.1,37.9,61,29.54,10.0,SW,3.5,-,N/A,,Overcast,230,2012-11-01 22:52:00
7:52 PM,50.0,37.9,63,29.55,10.0,Calm,Calm,-,N/A,,Overcast,0,2012-11-01 23:52:00
8:52 PM,48.9,37.9,66,29.55,10.0,WSW,3.5,-,N/A,,Overcast,250,2012-11-02 00:52:00
9:52 PM,48.9,39.0,69,29.56,10.0,SW,3.5,-,N/A,,Overcast,230,2012-11-02 01:52:00
10:52 PM,48.0,39.0,71,29.56,10.0,WSW,3.5,-,N/A,,Overcast,240,2012-11-02 02:52:00
11:52 PM,48.0,39.0,71,29.57,10.0,SSW,3.5,-,N/A,,Overcast,200,2012-11-02 03:52:00